Overview Statistics Trail Chart Weather Telemetry Raw packets
 

This is the latest recevied weather packets stored in our database for station/object K4IR. If no packets are shown the sender has not sent any weather packets the latest 10 day(s).

<< 5 6 7 8 9 10 11 >>
Time Temp. Humidity Pressure Rain* Wind** Luminosity Snow
1788534944 31.11° C 72% 1017.5 hPa 0 mm - 52 W/m² -
1788534343 31.11° C 74% 1017.8 hPa 0 mm - 84 W/m² -
1788533752 30.56° C 73% 1017.7 hPa 0 mm - 56 W/m² -
1788533141 31.11° C 73% 1017.3 hPa 0 mm - 56 W/m² -
1788532537 30.56° C 75% 1017.3 hPa 0 mm - 101 W/m² -
1788531936 31.11° C 77% 1017.2 hPa 0 mm - 229 W/m² -
1788531332 30.56° C 79% 1017 hPa 0 mm - 598 W/m² -
1788530727 30.56° C 79% 1017.2 hPa 0 mm - 258 W/m² -
1788530127 30.56° C 81% 1017.2 hPa 0 mm - 175 W/m² -
1788529524 30° C 81% 1017.3 hPa 0 mm - 147 W/m² -
1788528919 28.89° C 86% 1017.1 hPa 0 mm - 151 W/m² -
1788528315 27.78° C 93% 1017 hPa 0 mm - 80 W/m² -
1788527710 27.22° C 96% 1017.3 hPa 0 mm - 51 W/m² -
1788527105 26.67° C 99% 1017.2 hPa 0 mm - 181 W/m² -
1788526502 26.67° C 99% 1017.4 hPa 0 mm - 41 W/m² -
1788525898 26.11° C 99% 1017.2 hPa 0 mm - 70 W/m² -
1788525294 26.11° C 99% 1017.3 hPa 0 mm - 54 W/m² -
1788524689 25° C 99% 1017.2 hPa 0 mm - 62 W/m² -
1788524085 24.44° C 99% 1016.9 hPa 0 mm - 43 W/m² -
1788523483 23.33° C 99% 1017.3 hPa 0 mm - 33 W/m² -
1788522880 23.33° C 99% 1017.1 hPa 0 mm - 27 W/m² -
1788522279 22.78° C 99% 1017.2 hPa 0 mm - 26 W/m² -
1788521680 22.22° C 99% 1016.9 hPa 0 mm - 22 W/m² -
1788521076 22.22° C 99% 1017 hPa 0 mm - 19 W/m² -
1788520472 22.22° C 99% 1016.9 hPa 0 mm - 14 W/m² -

* Rain latest hour (hover to see other rain measurements)
** Current wind speed in m/s (hover to see current wind gust speed)